Location: ?????
(30.2541°N, 31.0910°E)
Time: 08:24:46
(UTC+00:00)

Cosmos 1633 Rocket - Pass Details

Date: 04 April 2023
Orbit: 604 x 623 km, 82.5° (Epoch: 29 May)

Event Time Altitude Azimuth Distance (km) Brightness Sun altitude
Rises 01:46:13 0° 1° (N) 2,896 6.8 -24.9°
Reaches altitude 10° 01:48:32 10° 8° (N) 1,984 6.0 -24.5°
Maximum altitude 01:52:45 46° 82° (E) 829 4.1 -23.6°
Drops below altitude 10° 01:56:56 10° 156° (SSE) 1,961 5.6 -22.8°
Sets 01:59:12 0° 162° (SSE) 2,859 6.4 -22.3°
